[ hide orbit diagram ]
For accurate long-term ephemerides, please instead use our Horizons system.This orbit viewer was implemented using two-body methods, and hence should not be used for determining accurate long-term trajectories (over several years or decades) or planetary encounter circumstances.
Orbital Elements at Epoch 2459000.5 (2020-May-31.0) TDB
Reference: JPL 35 (heliocentric ecliptic J2000)
Element | Value | Uncertainty (1-sigma) | Units |
e | .1890764930378176 | 4.4111e-08 | |
a | 2.433166526411243 | 7.5077e-09 | au |
q | 1.973111932620396 | 1.0781e-07 | au |
i | 3.046149596211275 | 4.526e-06 | deg |
node | 8.56044741489271 | 6.0483e-05 | deg |
peri | 6.165258521181685 | 6.1107e-05 | deg |
M | 261.0994119599252 | 8.6015e-06 | deg |
tp | 2459381.348763270544 (2021-Jun-15.84876327) | 3.3721e-05 | TDB |
period | 1386.296659043526 3.80 | 6.4162e-06 1.757e-08 | d yr |
n | .2596846769062992 | 1.2019e-09 | deg/d |
Q | 2.893221120202089 | 8.9272e-09 | au |
|
| | Orbit Determination Parameters
Additional Information
|
[ show covariance matrix ]
Physical Parameter Table
Parameter |
Symbol |
Value |
Units |
Sigma |
Reference |
Notes |
absolute magnitude |
H |
14.1 |
|
n/a |
MPO337274 |
|
diameter |
diameter |
8.335 |
km |
1.650 |
urn:nasa:pds:neowise_diameters_albedos::2.0[mainbelt] (http://adsabs.harvard.edu/abs/2012ApJ...759L...8M) |
|
geometric albedo |
albedo |
0.070 |
|
0.036 |
urn:nasa:pds:neowise_diameters_albedos::2.0[mainbelt] (http://adsabs.harvard.edu/abs/2012ApJ...759L...8M) |
|
|
3006 Livadia (1979 SF11) Discovered 1979-Sep-24 by Chernykh, N. at Nauchnyj |
Reference: DISCOVERY.DB | Last Updated: 2003-08-29 |
|
[ show close-approach data ]
Alternate Designations
1979 SF11 = 1956 RQ = 1964 YA = 1977 DT6 |
|
|